Regional Weather Roundup
Issued by NWS Cleveland, OH

Home | Current Version | Previous Version | Graphics & Text | Print | Product List | Glossary On
Versions: 1 2 3 4 5 6 7 8 9 10 11 12 13 14 15 16 17 18 19 20 21 22 23 24 25 26 27 28 29 30 31 32 33 34 35 36 37 38 39 40 41 42 43 44 45 46 47 48 49 50
000
ASUS41 KCLE 220312
RWRCLE
OHIO REGIONAL WEATHER ROUNDUP
NATIONAL WEATHER SERVICE WILMINGTON, OH
1000 PM EST TUE NOV 21 2017

NOTE: "FAIR" INDICATES FEW OR NO CLOUDS BELOW 12,000 FEET WITH NO
SIGNIFICANT WEATHER AND/OR OBSTRUCTIONS TO VISIBILITY.

OHZ001>008-015>018-024>027-034-035-043-044-220400-
   NORTHWEST OHIO

CITY           SKY/WX    TMP DP  RH WIND       PRES   REMARKS
DEFIANCE       CLOUDY    36  28  73 NW12      30.04R
FINDLAY        CLOUDY    38  32  79 NW10      30.01R
TOLEDO EXPRESS CLOUDY    38  29  70 W14       30.00R
TOLEDO EXEC    CLOUDY    39  33  79 NW14      30.01R
LIMA           CLOUDY    37  35  92 NW13      30.01S
$$

OHZ009>014-019>023-028>033-038-089-220400-
   NORTHEAST OHIO

CITY           SKY/WX    TMP DP  RH WIND       PRES   REMARKS
CLE-HOPKINS    LGT RAIN  41  37  86 NW17      29.98R
CLE-LAKEFRONT  LGT RAIN  42  37  82 W23       29.95R
CUY CO. ARPT   DRIZZLE   43  39  87 W12       29.95R
LORAIN-ELYRIA  LGT RAIN  39  33  79 NW13      29.97R
ASHTABULA      CLOUDY    44  39  82 W13G23    29.93R
AKRON-CANTON   CLOUDY    47  33  58 W8        29.93R
WOOSTER        NOT AVBL
MANSFIELD      LGT RAIN  40  37  89 W9        29.96R
YOUNGSTOWN     CLOUDY    47  31  53 SW8       29.91R
$$

OHZ042-051>053-060>062-070>072-077>081-220400-
  SOUTHWEST OHIO

CITY           SKY/WX    TMP DP  RH WIND       PRES   REMARKS
CINC-COVINGTON CLOUDY    46  34  62 NW12      30.02R
CINC-LUNKEN    MOCLDY    48  33  56 N10       30.04R
HAMILTON       CLOUDY    45  36  70 NW16      30.05R
DAYTON         LGT RAIN  37  35  92 NW18G28   30.03R
WRIGHT-PAT AFB DRIZZLE   42  38  84 NW16G25   30.01R
DAYTON GENERAL CLOUDY    43  35  73 NW14G25   30.01R
WILMINGTON     CLOUDY    46  35  65 NW13      30.00R
$$

OHZ036-037-039>041-045>050-054>059-063>069-073>076-082>088-220400-
  CENTRAL AND SOUTHEAST OHIO

CITY           SKY/WX    TMP DP  RH WIND       PRES   REMARKS
COLUMBUS       CLOUDY    48  36  63 W12       29.97R
OSU AIRPORT    CLOUDY    45  37  73 W12       29.98R
BOLTON FIELD   CLOUDY    45  36  70 NW8       30.00R
RICKENBACK AFB CLOUDY    47  35  64 NW15G23   29.99R
NEWARK         FAIR      48  33  56 NW13      29.96R
MARION         LGT RAIN  40  36  86 NW15G25   30.00R
LANCASTER      FAIR      46  33  60 NW8       29.98R
ZANESVILLE     FAIR      47  30  51 W6        29.96R
NEW PHILLY     FAIR      48  31  51 W3        29.95R
$$




USA.gov is the U.S. government's official web portal to all federal, state and local government web resources and services.